Location: Newark
(9.5333°N, 13.6833°W)
Time: 06:00:13
(UTC+00:00)

N. Korean satellite - Visible Passes

Search period start: 28 February 2020 00:00
Search period end: 09 March 2020 00:00
Orbit: 456 x 505 km, 97.2° (Epoch: 27 February)

Date Brightness Start Highest point End Pass type
(mag) Time Alt. Az. Time Alt. Az. Time Alt. Az.
28 Feb 10.3 05:30:20 10° E 05:30:34 10° E 05:30:48 10° ESE visible
29 Feb 6.6 06:34:45 10° N 06:38:17 55° WNW 06:41:47 10° SSW visible
01 Mar 7.6 06:09:18 10° NNE 06:12:48 49° E 06:16:15 10° S visible
02 Mar 9.5 05:44:42 10° NE 05:47:16 19° E 05:49:48 10° SE visible
04 Mar 6.4 06:25:53 10° N 06:29:27 80° W 06:32:58 10° SSW visible
05 Mar 8.3 06:00:40 10° NNE 06:03:56 34° E 06:07:09 10° SSE visible
06 Mar 9.9 05:36:34 10° ENE 05:38:23 13° E 05:40:10 10° SE visible
08 Mar 6.8 06:17:02 10° NNE 06:20:34 71° E 06:24:02 10° S visible
